TimeCST,TemperatureF,Dew PointF,Humidity,Sea Level PressureIn,VisibilityMPH,Wind Direction,Wind SpeedMPH,Gust SpeedMPH,PrecipitationIn,Events,Conditions,WindDirDegrees,DateUTC
12:55 AM,28.0,21.7,77,30.44,10.0,Calm,Calm,-,N/A,,Clear,0,2013-11-14 06:55:00
1:57 AM,29.3,19.8,68,30.44,10.0,North,-9999.0,-,N/A,,Clear,0,2013-11-14 07:57:00
2:24 AM,29.3,19.8,68,30.44,10.0,Calm,Calm,-,N/A,,Clear,0,2013-11-14 08:24:00
2:58 AM,28.0,21.6,77,30.43,10.0,South,3.5,-,N/A,,Clear,170,2013-11-14 08:58:00
3:58 AM,28.0,20.3,73,30.42,10.0,SSE,3.5,-,N/A,,Clear,150,2013-11-14 09:58:00
4:58 AM,26.2,21.7,83,30.42,10.0,SE,3.5,-,N/A,,Clear,140,2013-11-14 10:58:00
5:58 AM,26.6,21.0,79,30.43,10.0,Variable,3.5,-,N/A,,Clear,0,2013-11-14 11:58:00
6:58 AM,27.0,21.4,79,30.43,10.0,ESE,3.5,-,N/A,,Clear,120,2013-11-14 12:58:00
7:58 AM,33.4,21.9,63,30.43,10.0,South,3.5,-,N/A,,Clear,180,2013-11-14 13:58:00
8:58 AM,42.1,21.4,44,30.43,10.0,SSW,8.1,-,N/A,,Clear,210,2013-11-14 14:58:00
9:58 AM,48.2,18.5,31,30.42,10.0,SW,12.7,-,N/A,,Clear,220,2013-11-14 15:58:00
10:58 AM,52.0,17.6,26,30.39,10.0,SSW,12.7,-,N/A,,Clear,210,2013-11-14 16:58:00
11:58 AM,54.1,15.3,22,30.34,10.0,SSW,15.0,-,N/A,,Clear,210,2013-11-14 17:58:00
12:58 PM,56.1,13.1,18,30.28,10.0,SSW,11.5,-,N/A,,Clear,210,2013-11-14 18:58:00
1:58 PM,56.1,14.2,19,30.26,10.0,South,10.4,-,N/A,,Clear,190,2013-11-14 19:58:00
2:58 PM,55.6,14.9,20,30.26,10.0,South,8.1,-,N/A,,Clear,180,2013-11-14 20:58:00
3:58 PM,55.2,14.5,20,30.25,10.0,South,10.4,-,N/A,,Clear,190,2013-11-14 21:58:00
4:58 PM,51.6,14.2,23,30.23,10.0,South,3.5,-,N/A,,Clear,190,2013-11-14 22:58:00
5:58 PM,48.6,15.3,26,30.24,10.0,South,4.6,-,N/A,,Clear,170,2013-11-14 23:58:00
6:58 PM,47.7,16.3,29,30.24,10.0,SSE,5.8,-,N/A,,Clear,160,2013-11-15 00:58:00
7:58 PM,46.4,16.0,30,30.23,10.0,South,8.1,-,N/A,,Clear,170,2013-11-15 01:58:00
8:58 PM,44.8,16.9,33,30.22,10.0,SSE,5.8,-,N/A,,Clear,160,2013-11-15 02:58:00
9:58 PM,41.2,18.3,40,30.20,10.0,SE,4.6,-,N/A,,Clear,140,2013-11-15 03:58:00
10:58 PM,39.6,19.2,44,30.19,10.0,Calm,Calm,-,N/A,,Clear,0,2013-11-15 04:58:00
11:58 PM,36.7,20.7,52,30.19,10.0,South,3.5,-,N/A,,Clear,170,2013-11-15 05:58:00